DW6033 Weather Reports


Display with metric or nautical units.
time (UTC)temp
F
wind
direction
speed
MPH
gust
MPH
rain 1hr
in
rain 24hr
in
rain mn
in
humidity
%
barometer
mb
20260508090013 43 312 4.0 6.0 0.00 0.00 0.00 66 1006.7
20260508084503 43 311 3.0 4.0 0.00 0.00 0.00 66 1006.8
20260508083100 45 306 3.0 5.0 0.00 0.00 0.00 60 1006.7
20260508081558 45 325 2.0 6.0 0.00 0.00 0.00 58 1006.5
20260508080059 45 306 3.0 6.0 0.00 0.00 0.00 59 1006.5
20260508074555 46 330 4.0 7.0 0.00 0.00 0.00 56 1006.4
20260508073054 46 283 4.0 8.0 0.00 0.00 0.00 57 1006.3
20260508071554 46 308 4.0 10.0 0.00 0.00 0.00 55 1006.1
20260508070053 46 282 5.0 10.0 0.00 0.00 0.00 55 1006.1
20260508064551 47 325 5.0 9.0 0.00 0.01 0.00 55 1006.3
20260508063115 47 313 7.0 12.0 0.00 0.01 0.00 55 1006.2
20260508061546 47 310 6.0 11.0 0.00 0.01 0.00 54 1006.2
20260508060041 47 326 7.0 14.0 0.00 0.01 0.00 53 1006.5
20260508054542 47 339 5.0 10.0 0.00 0.15 0.00 52 1006.6
20260508053051 47 277 4.0 11.0 0.00 0.15 0.00 52 1006.6
20260508051602 47 273 5.0 9.0 0.00 0.15 0.00 54 1006.5
20260508050035 48 311 5.0 9.0 0.00 0.15 0.00 51 1006.7
20260508044534 48 278 5.0 10.0 0.00 0.17 0.00 51 1006.7
20260508043032 48 285 7.0 15.0 0.00 0.17 0.00 51 1006.6
20260508041529 48 305 7.0 11.0 0.00 0.17 0.00 51 1006.7
20260508040025 48 296 6.0 10.0 0.00 0.17 0.00 50 1006.8
20260508034528 48 311 6.0 10.0 0.00 0.17 0.17 50 1006.8
20260508033032 49 290 8.0 11.0 0.00 0.17 0.17 49 1007.0
20260508031524 49 296 8.0 13.0 0.00 0.17 0.17 49 1007.0
20260508030024 50 300 8.0 15.0 0.00 0.17 0.17 47 1006.9
20260508024525 50 300 7.0 12.0 0.00 0.17 0.17 49 1006.7
20260508023028 50 286 10.0 16.0 0.00 0.17 0.17 48 1006.6
20260508021531 51 309 5.0 9.0 0.00 0.17 0.17 49 1006.4
20260508020022 51 348 4.0 10.0 0.00 0.17 0.17 46 1006.6
20260508014522 52 338 3.0 9.0 0.00 0.24 0.17 47 1006.5
20260508013021 53 325 10.0 17.0 0.00 0.24 0.17 46 1006.3
20260508011527 53 288 9.0 13.0 0.00 0.24 0.17 44 1006.4
20260508010035 54 326 8.0 17.0 0.00 0.24 0.17 44 1006.2
20260508004520 54 309 11.0 17.0 0.00 0.37 0.17 44 1005.7
20260508003019 55 309 10.0 19.0 0.00 0.37 0.17 45 1005.7
20260508001519 56 337 7.0 12.0 0.00 0.37 0.17 45 1005.4
20260508000019 57 303 9.0 20.0 0.00 0.37 0.17 43 1005.1
20260507234519 58 313 11.0 17.0 0.00 0.55 0.17 41 1004.9
20260507233018 59 274 9.0 16.0 0.00 0.55 0.17 34 1004.7
20260507231517 60 321 7.0 14.0 0.00 0.55 0.17 35 1004.4
20260507230021 60 275 12.0 21.0 0.00 0.55 0.17 34 1004.1
20260507224511 61 317 8.0 16.0 0.00 0.71 0.17 35 1003.7
20260507223009 61 277 10.0 21.0 0.00 0.71 0.17 38 1003.6
20260507221506 55 78 6.0 9.0 0.00 0.71 0.17 73 1003.5
20260507220005 58 126 5.0 8.0 0.00 0.71 0.17 65 1003.5
20260507214505 59 209 3.0 6.0 0.00 0.79 0.17 58 1003.6
20260507213005 58 289 3.0 8.0 0.00 0.79 0.17 60 1003.6
20260507211504 58 190 5.0 9.0 0.00 0.79 0.17 60 1003.6
20260507210003 58 261 5.0 11.0 0.00 0.79 0.17 62 1003.6
20260507204502 57 115 4.0 8.0 0.00 0.84 0.17 66 1003.5
20260507203005 58 165 4.0 10.0 0.00 0.84 0.17 64 1003.5
20260507201501 58 209 4.0 10.0 0.00 0.84 0.17 63 1003.3
20260507200001 58 261 6.0 12.0 0.00 0.84 0.17 62 1003.4
20260507194601 58 143 5.0 12.0 0.00 0.84 0.17 64 1003.5
20260507193101 58 221 5.0 17.0 0.00 0.84 0.17 64 1003.7
20260507191600 58 259 7.0 16.0 0.00 0.84 0.17 66 1003.7
20260507190059 59 213 8.0 17.0 0.00 0.84 0.17 65 1003.4
20260507184556 56 185 5.0 9.0 0.00 0.84 0.17 73 1003.6
20260507183055 53 61 3.0 5.0 0.00 0.84 0.17 81 1003.8
20260507181551 52 118 3.0 5.0 0.00 0.84 0.17 83 1003.9
20260507180051 51 79 3.0 11.0 0.00 0.84 0.17 84 1004.2
20260507174556 51 80 8.0 12.0 0.00 0.84 0.17 85 1004.2
20260507173054 54 119 4.0 11.0 0.00 0.84 0.17 78 1004.5
20260507171559 53 143 10.0 14.0 0.00 0.84 0.17 75 1004.4
20260507170050 53 145 6.0 11.0 0.00 0.84 0.17 76 1004.7
20260507164549 53 158 9.0 14.0 0.00 0.84 0.17 77 1004.8
20260507163046 53 145 12.0 15.0 0.00 0.84 0.17 78 1005.1
20260507161553 52 117 10.0 14.0 0.00 0.84 0.17 79 1005.1
20260507160045 53 134 8.0 12.0 0.00 0.84 0.17 78 1005.3
20260507154545 52 121 9.0 12.0 0.00 0.84 0.17 81 1005.5
20260507153057 52 134 7.0 11.0 0.00 0.84 0.17 82 1005.5
20260507151543 51 152 7.0 11.0 0.00 0.84 0.17 84 1005.7
20260507150049 51 140 6.0 10.0 0.00 0.84 0.17 84 1005.7
20260507144542 49 135 10.0 14.0 0.00 0.84 0.17 88 1005.8
20260507143041 48 122 10.0 12.0 0.00 0.84 0.17 88 1006.0
20260507141538 49 127 8.0 10.0 0.00 0.84 0.17 87 1006.2
20260507140037 49 134 7.0 12.0 0.00 0.84 0.17 84 1006.2
20260507134537 53 122 3.0 7.0 0.00 0.85 0.17 74 1006.2
20260507133035 54 294 4.0 10.0 0.00 0.85 0.17 70 1006.2
20260507131534 53 309 4.0 12.0 0.00 0.85 0.17 72 1006.5
20260507130052 52 311 8.0 13.0 0.00 0.85 0.17 74 1006.3
20260507124530 51 332 3.0 10.0 0.00 0.85 0.17 79 1006.3
20260507123029 51 270 8.0 12.0 0.00 0.85 0.17 80 1006.4
20260507121528 50 291 8.0 11.0 0.00 0.85 0.17 82 1005.9
20260507120034 50 290 7.0 9.0 0.00 0.85 0.17 84 1006.4
20260507114524 49 293 8.0 12.0 0.00 0.85 0.17 86 1006.4
20260507113023 49 295 8.0 10.0 0.00 0.85 0.17 87 1006.8
20260507111519 49 291 5.0 8.0 0.00 0.85 0.17 86 1007.5
20260507110024 49 253 3.0 7.0 0.00 0.85 0.17 85 1007.6
20260507104517 48 249 2.0 6.0 0.00 0.85 0.17 86 1007.1
20260507103015 48 259 3.0 5.0 0.00 0.85 0.17 86 1007.0
20260507101512 48 234 0.0 4.0 0.00 0.85 0.17 86 1006.1
20260507100010 48 253 3.0 5.0 0.00 0.85 0.17 86 1006.3
20260507094509 49 279 4.0 6.0 0.00 0.85 0.17 86 1006.3
20260507093008 49 47 4.0 6.0 0.00 0.85 0.17 85 1006.0
20260507091508 49 325 1.0 7.0 0.00 0.85 0.17 85 1006.1